Location: McFarlands Corners
(41.4117°N, 81.3382°W)
Time: 05:32:12
(UTC+00:00)

A-11 Canister half - Pass Details

Date: 24 February 2026
Orbit: 1524 x 1683 km, 47.3° (Epoch: 14 March)

Event Time Altitude Azimuth Distance (km) Brightness Sun altitude
Rises 01:19:22 0° 294° (WNW) 4,688 12.8 -25.1°
Reaches altitude 10° 01:22:25 10° 295° (WNW) 3,697 12.0 -25.7°
Maximum altitude 01:31:45 87° 26° (NNE) 1,532 8.8 -27.4°
Enters shadow 01:34:37 51° 113° (ESE) 1,854 8.9 -27.9°
